sat.trackr.live / text

‹ back to catalog

NUSAT-53 (JANE GOODALL)

NORAD 68432 · 2026-067S

PAYLOAD ACTIVE UNKNOWN

§ Identity

Operator
Country
ARGN
Launch date
2026-03-30
Launch site
AFWTR
Launch vehicle
Mass (kg)
RCS (m²)

External: N2YO · Heavens-Above · Gunter

§ Orbital elements

Epoch: 2026-05-25T03:14:35.945664Z

Period
94.84 min
Inclination
97.4543°
Eccentricity
0.0004371
Mean motion
15.18290529 rev/d
Perigee alt
508.0 km
Apogee alt
514.0 km
Semi-major
6,889.1 km
B*
2.3865e-4
RAAN
103.9540°
Arg perigee
97.3919°
Mean anomaly
262.7812°
Rev number
844

§ Raw data

NUSAT-53 (JANE GOODALL)1 68432U 26067S   26145.13513826  .00004826  00000+0  23865-3 0  99972 68432  97.4543 103.9540 0004371  97.3919 262.7812 15.18290529  8448

JSON: /api/v1/satellites/68432 · /tle

For live sub-satellite position, see the globe view (requires WebGL).

§ Visibility from observer

Set your observer location to see the next 7 days of passes ≥ 10°. The values pass through the URL so the page stays shareable.

No JS? Fill the form by hand. The geolocation button needs JavaScript.